N7NIP Weather Reports


time (UTC)temp
F
wind
direction
speed
knots
gust
knots
rain 1hr
in
rain 24hr
in
rain mn
in
humidity
%
barometer
mb
20260503194455 75 121 0.9 4.3 0.00 0.00 0.00 52 1027.2
20260503193949 75 291 1.7 4.3 0.00 0.00 0.00 49 1027.4
20260503193445 75 300 2.6 6.1 0.00 0.00 0.00 50 1027.4
20260503192941 75 15 2.6 5.2 0.00 0.00 0.00 50 1027.5
20260503192438 74 350 3.5 4.3 0.00 0.00 0.00 50 1027.4
20260503191933 74 337 2.6 7.0 0.00 0.00 0.00 54 1027.6
20260503191431 73 7 3.5 9.6 0.00 0.00 0.00 52 1027.4
20260503190927 74 135 1.7 2.6 0.00 0.00 0.00 54 1027.5
20260503190425 73 255 1.7 4.3 0.00 0.00 0.00 57 1027.7
20260503185921 73 180 1.7 3.5 0.00 0.00 0.00 53 1027.7
20260503185418 73 226 4.3 5.2 0.00 0.00 0.00 52 1027.7
20260503184917 73 8 2.6 5.2 0.00 0.00 0.00 55 1027.5
20260503184414 73 256 1.7 6.1 0.00 0.00 0.00 50 1027.7
20260503183910 73 12 3.5 3.5 0.00 0.00 0.00 54 1027.9
20260503183407 73 25 4.3 4.3 0.00 0.00 0.00 53 1027.8
20260503182904 73 1 3.5 4.3 0.00 0.00 0.00 51 1027.8
20260503182403 71 28 1.7 5.2 0.00 0.00 0.00 53 1028.0
20260503181900 71 315 1.7 3.5 0.00 0.00 0.00 53 1028.0
20260503181357 71 259 1.7 3.5 0.00 0.00 0.00 53 1027.9
20260503180853 71 355 3.5 6.1 0.00 0.00 0.00 53 1028.0
20260503180351 71 256 0.0 3.5 0.00 0.00 0.00 54 1028.2
20260503175847 71 28 0.9 3.5 0.00 0.00 0.00 57 1028.2
20260503175345 71 246 0.0 6.1 0.00 0.00 0.00 51 1028.2
20260503174841 70 22 3.5 4.3 0.00 0.00 0.00 53 1028.2
20260503174340 70 93 0.9 3.5 0.00 0.00 0.00 52 1028.2
20260503173839 70 56 1.7 5.2 0.00 0.00 0.00 58 1028.1
20260503173336 69 276 1.7 3.5 0.00 0.00 0.00 60 1028.2
20260503172833 69 330 0.9 2.6 0.00 0.00 0.00 54 1028.4
20260503172331 69 32 2.6 3.5 0.00 0.00 0.00 56 1028.3
20260503171832 68 2 0.9 4.3 0.00 0.00 0.00 60 1028.4
20260503171329 68 199 3.5 4.3 0.00 0.00 0.00 59 1028.4
20260503170826 69 251 2.6 3.5 0.00 0.00 0.00 58 1028.3
20260503170322 67 55 2.6 3.5 0.00 0.00 0.00 62 1028.5
20260503150715 56 69 1.7 2.6 0.00 0.00 0.00 99 1028.7
20260503150211 55 340 1.7 3.5 0.00 0.00 0.00 99 1028.9
20260503140136 50 23 2.6 2.6 0.00 0.00 0.00 99 1028.4
20260503131105 49 84 1.7 1.7 0.00 0.00 0.00 99 1028.4
20260503130602 49 91 1.7 2.6 0.00 0.00 0.00 99 1028.3
20260503110452 50 94 1.7 2.6 0.00 0.00 0.00 98 1028.7
20260503090338 50 102 1.7 1.7 0.00 0.00 0.00 95 1028.9
20260503081306 50 78 1.7 1.7 0.00 0.00 0.00 95 1029.1
20260503080801 50 70 1.7 1.7 0.00 0.00 0.00 93 1028.8
20260503080259 50 66 1.7 1.7 0.00 0.00 0.00 93 1028.9
20260503072736 52 95 1.7 1.7 0.00 0.00 0.00 88 1029.0
20260503072232 52 109 0.0 1.7 0.00 0.00 0.00 89 1029.0
20260503071729 52 93 1.7 1.7 0.00 0.00 0.00 88 1028.8
20260503071226 52 94 0.9 1.7 0.00 0.00 0.00 88 1028.9
20260503070722 52 89 1.7 1.7 0.00 0.00 0.00 89 1028.8
20260503070220 51 71 1.7 1.7 0.00 0.00 0.00 88 1028.9
20260503060151 54 101 1.7 1.7 0.00 0.00 0.00 78 1028.9
20260503054638 55 85 1.7 1.7 0.00 0.00 0.00 76 1028.7
20260503054135 55 89 0.0 1.7 0.00 0.00 0.00 76 1028.9
20260503053633 55 94 1.7 1.7 0.00 0.00 0.00 75 1028.8
20260503053132 55 73 0.0 1.7 0.00 0.00 0.00 75 1028.7
20260503052627 55 77 1.7 1.7 0.00 0.00 0.00 74 1028.8
20260503052124 56 74 1.7 1.7 0.00 0.00 0.00 73 1028.8
20260503051619 56 83 0.9 1.7 0.00 0.00 0.00 72 1028.6
20260503051117 56 87 1.7 1.7 0.00 0.00 0.00 73 1028.7
20260503050614 56 69 1.7 1.7 0.00 0.00 0.00 72 1028.5
20260503050110 56 78 1.7 1.7 0.00 0.00 0.00 72 1028.3
20260503045608 57 66 1.7 1.7 0.00 0.00 0.00 69 1028.6
20260503045105 57 63 1.7 1.7 0.00 0.00 0.00 71 1028.5
20260503044601 58 73 0.9 1.7 0.00 0.00 0.00 69 1028.7
20260503044059 58 73 0.9 1.7 0.00 0.00 0.00 67 1028.4
20260503043555 58 82 0.9 1.7 0.00 0.00 0.00 68 1028.3
20260503043052 58 85 1.7 1.7 0.00 0.00 0.00 66 1028.3
20260503042549 59 110 0.0 0.9 0.00 0.00 0.00 65 1028.2
20260503042045 59 82 0.0 1.7 0.00 0.00 0.00 66 1028.3
20260503041542 59 94 0.9 1.7 0.00 0.00 0.00 67 1028.2
20260503041040 59 95 0.0 1.7 0.00 0.00 0.00 65 1028.2
20260503040537 59 112 0.9 1.7 0.00 0.00 0.00 65 1028.2
20260503040034 60 112 0.9 0.9 0.00 0.00 0.00 63 1027.9
20260503035531 60 77 1.7 1.7 0.00 0.00 0.00 63 1027.9
20260503035029 60 84 0.9 1.7 0.00 0.00 0.00 64 1027.9
20260503034525 61 108 0.9 1.7 0.00 0.00 0.00 64 1027.6
20260503034022 62 63 1.7 1.7 0.00 0.00 0.00 62 1027.8
20260503033519 62 333 0.0 0.0 0.00 0.00 0.00 59 1027.7
20260503033018 62 72 0.9 0.9 0.00 0.00 0.00 60 1027.6
20260503032516 62 100 1.7 1.7 0.00 0.00 0.00 59 1027.5
20260503032014 63 45 1.7 1.7 0.00 0.00 0.00 58 1027.5
20260503031511 63 9 0.9 1.7 0.00 0.00 0.00 57 1027.3
20260503031008 64 89 0.0 1.7 0.00 0.00 0.00 56 1027.3
20260503030504 65 49 0.9 1.7 0.00 0.00 0.00 54 1027.3
20260503030001 65 54 0.0 1.7 0.00 0.00 0.00 53 1027.2
20260503025458 66 29 0.0 1.7 0.00 0.00 0.00 53 1027.2
20260503024956 66 35 0.0 1.7 0.00 0.00 0.00 53 1027.2
20260503024451 67 109 1.7 1.7 0.00 0.00 0.00 50 1027.2
20260503023949 67 38 0.9 1.7 0.00 0.00 0.00 50 1027.4
20260503023445 68 177 1.7 1.7 0.00 0.00 0.00 49 1027.1
20260503022942 68 30 1.7 2.6 0.00 0.00 0.00 47 1027.2
20260503022437 68 109 1.7 2.6 0.00 0.00 0.00 46 1027.3
20260503021934 68 121 1.7 4.3 0.00 0.00 0.00 47 1027.3
20260503021430 69 23 3.5 3.5 0.00 0.00 0.00 46 1026.8
20260503020928 69 31 1.7 7.8 0.00 0.00 0.00 45 1027.4
20260503020425 69 82 2.6 5.2 0.00 0.00 0.00 44 1027.1
20260503015921 70 75 0.0 4.3 0.00 0.00 0.00 45 1027.2
20260503015418 71 83 1.7 4.3 0.00 0.00 0.00 43 1027.4
20260503014914 72 101 1.7 3.5 0.00 0.00 0.00 44 1027.5
20260503014412 72 268 1.7 3.5 0.00 0.00 0.00 42 1027.4
20260503013910 73 263 1.7 3.5 0.00 0.00 0.00 45 1027.3
20260503013406 73 12 5.2 6.1 0.00 0.00 0.00 43 1027.2
20260503012903 73 67 1.7 5.2 0.00 0.00 0.00 44 1027.3
20260503012401 74 8 1.7 3.5 0.00 0.00 0.00 47 1027.4
20260503011857 74 78 0.0 3.5 0.00 0.00 0.00 47 1027.5
20260503011355 73 22 4.3 7.0 0.00 0.00 0.00 48 1027.5
20260503010851 74 4 2.6 5.2 0.00 0.00 0.00 47 1027.4
20260503010348 74 245 2.6 4.3 0.00 0.00 0.00 47 1027.3
20260503005845 75 11 7.8 7.8 0.00 0.00 0.00 47 1027.3
20260503005343 75 356 3.5 6.1 0.00 0.00 0.00 47 1027.4
20260503004838 74 257 0.9 4.3 0.00 0.00 0.00 49 1027.2
20260503004336 75 324 1.7 5.2 0.00 0.00 0.00 50 1027.4
20260503003833 75 75 1.7 7.8 0.00 0.00 0.00 50 1027.5
20260503003330 75 7 3.5 4.3 0.00 0.00 0.00 50 1027.4
20260503002827 75 14 1.7 5.2 0.00 0.00 0.00 50 1027.5
20260503002324 74 16 3.5 8.7 0.00 0.00 0.00 52 1027.4
20260503001820 76 355 6.1 8.7 0.00 0.00 0.00 50 1027.4
20260503001317 75 321 0.9 5.2 0.00 0.00 0.00 51 1027.6
20260503000815 75 204 1.7 4.3 0.00 0.00 0.00 52 1027.6
20260503000312 76 246 2.6 4.3 0.00 0.00 0.00 51 1027.4
20260502235809 75 26 1.7 4.3 0.00 0.00 0.00 53 1027.7
20260502235306 75 198 2.6 5.2 0.00 0.00 0.00 52 1027.6
20260502234802 75 40 5.2 7.8 0.00 0.00 0.00 52 1027.9
20260502234259 75 344 0.0 6.1 0.00 0.00 0.00 52 1027.8
20260502233755 76 190 2.6 4.3 0.00 0.00 0.00 53 1028.0
20260502233253 75 245 2.6 5.2 0.00 0.00 0.00 53 1028.0
20260502232749 74 331 1.7 7.0 0.00 0.00 0.00 51 1028.0
20260502232246 75 356 5.2 8.7 0.00 0.00 0.00 51 1028.0
20260502231742 75 255 2.6 5.2 0.00 0.00 0.00 55 1028.0
20260502231240 75 36 7.8 9.6 0.00 0.00 0.00 54 1028.1
20260502230738 75 221 5.2 7.8 0.00 0.00 0.00 54 1028.1
20260502230236 75 339 2.6 5.2 0.00 0.00 0.00 54 1028.3
20260502225732 74 5 3.5 8.7 0.00 0.00 0.00 54 1028.2
20260502225230 73 20 5.2 5.2 0.00 0.00 0.00 55 1028.6
20260502224726 73 245 4.3 5.2 0.00 0.00 0.00 55 1028.6
20260502224222 73 30 3.5 10.4 0.00 0.00 0.00 56 1028.6
20260502223720 74 243 5.2 6.1 0.00 0.00 0.00 54 1028.6
20260502223218 73 299 3.5 7.8 0.00 0.00 0.00 56 1028.5
20260502222716 74 253 3.5 5.2 0.00 0.00 0.00 54 1028.7
20260502222212 74 264 1.7 6.1 0.00 0.00 0.00 54 1028.9
20260502221708 74 353 3.5 5.2 0.00 0.00 0.00 55 1028.8
20260502221205 73 309 0.0 7.8 0.00 0.00 0.00 55 1028.9
20260502220701 73 201 2.6 7.0 0.00 0.00 0.00 57 1028.9
20260502220157 73 202 6.1 7.8 0.00 0.00 0.00 57 1029.1
20260502215654 73 201 1.7 3.5 0.00 0.00 0.00 56 1028.9
20260502215151 73 244 3.5 4.3 0.00 0.00 0.00 59 1029.0
20260502214649 72 300 6.1 6.1 0.00 0.00 0.00 59 1029.4
20260502214146 72 156 0.9 4.3 0.00 0.00 0.00 59 1029.1
20260502213643 71 333 1.7 5.2 0.00 0.00 0.00 60 1029.2
20260502213140 71 210 6.1 7.8 0.00 0.00 0.00 58 1029.4
20260502212639 71 21 4.3 6.1 0.00 0.00 0.00 59 1029.5
20260502212137 72 350 3.5 6.1 0.00 0.00 0.00 58 1029.4
20260502211632 71 359 2.6 3.5 0.00 0.00 0.00 62 1029.4
20260502211129 70 253 1.7 4.3 0.00 0.00 0.00 62 1029.3
20260502210627 70 209 0.0 2.6 0.00 0.00 0.00 61 1029.6
20260502210124 70 332 2.6 5.2 0.00 0.00 0.00 60 1029.8
20260502205620 69 82 1.7 4.3 0.00 0.00 0.00 67 1029.6
20260502205117 69 167 5.2 7.8 0.00 0.00 0.00 62 1029.5
20260502204614 70 343 2.6 6.1 0.00 0.00 0.00 63 1029.5
20260502204112 70 235 4.3 5.2 0.00 0.00 0.00 61 1029.4
20260502203609 70 205 1.7 5.2 0.00 0.00 0.00 62 1029.5
20260502203106 70 322 2.6 4.3 0.00 0.00 0.00 63 1029.8
20260502202601 69 218 1.7 7.8 0.00 0.00 0.00 64 1029.7
20260502202100 70 207 2.6 4.3 0.00 0.00 0.00 62 1030.1
20260502201555 70 225 1.7 4.3 0.00 0.00 0.00 62 1030.0
20260502201052 69 229 2.6 4.3 0.00 0.00 0.00 64 1030.0
20260502200548 70 194 1.7 5.2 0.00 0.00 0.00 64 1030.1
20260502200046 69 14 2.6 6.1 0.00 0.00 0.00 63 1030.2
20260502195543 68 230 3.5 5.2 0.00 0.00 0.00 64 1030.2
20260502195039 68 311 0.0 2.6 0.00 0.00 0.00 64 1030.3
20260502194536 67 174 0.0 3.5 0.00 0.00 0.00 67 1030.4